Home   Weather   Knoxville   Past weeks

Flag for USA Past Weather in Knoxville, Tennessee, USA — Yesterday and Last 2 Weeks

Now
88 °F

Partly sunny.


Feels Like: 92 °F
Forecast: 74 / 91 °F
Wind: 7 mph from North

Location: McGhee Tyson Airport

Current Time: Jul 24, 2017 at 5:01:38 pm

Latest Report: Jul 24, 2017 at 3:53 pm


Visibility: 10 mi

Pressure: 29.93 "Hg

Humidity: 52%

Dew Point: 68 °F

Location of KnoxvilleLocation

Past Weather in Knoxville — Graph

°F

Knoxville Temperature Yesterday

Maximum temperature yesterday: 87 °F (at 1:53 pm)
Minimum temperature yesterday: 77 °F (at 6:53 am)
Average temperature yesterday: 82 °F

High & Low Weather Summary for the Past Weeks

 TemperatureHumidityPressure
High96 °F (Jul 22, 4:53 pm)100% (Jul 24, 7:18 am)30.17 "Hg (Jul 24, 7:18 am)
Low62 °F (Jul 10, 5:53 am)27% (Jul 10, 2:53 pm)29.80 "Hg (Jul 23, 8:53 pm)
Average80 °F68%30.02 "Hg
* Reported Jul 9 2:53 pm — Jul 24 2:53 pm, Knoxville. Weather by CustomWeather, © 2017

Note: Actual official high and low records may vary slightly from our data, if they occured in-between our weather recording intervals... More about our weather records

Advertising

Knoxville Weather History for the Previous 24 Hours

Scroll right to see more
 ConditionsComfort  
Time TempWeatherWind HumidityBarometerVisibility
2:53 pm
Mon, Jul 24
86 °FBroken clouds.5 mph53%29.94 "Hg10 mi
1:53 pm85 °FBroken clouds.7 mph57%29.95 "Hg10 mi
12:53 pm84 °FBroken clouds.8 mph63%29.96 "Hg10 mi
11:53 am80 °FBroken clouds.3 mph69%29.96 "Hg10 mi
11:21 am80 °FBroken clouds.7 mph71%30.00 "Hg10 mi
10:53 am79 °FPartly sunny.5 mph74%29.96 "Hg10 mi
10:25 am77 °FMostly cloudy.5 mph82%29.99 "Hg10 mi
10:00 am77 °FMore clouds than sun.7 mph82%29.99 "Hg10 mi
8:53 am74 °FCloudy.No wind91%29.93 "Hg7 mi
8:27 am73 °FCloudy.No wind90%29.97 "Hg7 mi
8:11 am72 °FFog.3 mph97%29.96 "Hg4 mi
7:53 am72 °FFog.3 mph97%29.93 "Hg2 mi
7:18 am71 °FFog.No wind100%29.95 "Hg1 mi
6:58 am71 °FFog.5 mph96%29.94 "Hg1 mi
6:05 am72 °FLow clouds.3 mph93%29.94 "Hg10 mi
5:53 am72 °FLow clouds.No wind91%29.90 "Hg10 mi
5:13 am71 °FMostly cloudy.No wind93%29.93 "Hg10 mi
4:53 am70 °FMostly cloudy.5 mph93%29.88 "Hg10 mi
3:53 am71 °FMostly cloudy.3 mph90%29.89 "Hg10 mi
2:53 am70 °FMostly cloudy.3 mph93%29.89 "Hg10 mi
1:53 am70 °FMostly cloudy.5 mph93%29.90 "Hg10 mi
1:34 am70 °FMostly cloudy.8 mph88%29.94 "Hg10 mi
12:53 am69 °FThundershowers. Fog.5 mph90%29.90 "Hg4 mi
12:41 am70 °FStrong thunderstorms. Fog.8 mph90%29.94 "Hg1 mi
12:07 am74 °FThunderstorms. Mostly cloudy.10 mph74%29.93 "Hg10 mi
11:21 pm
Sun, Jul 23
78 °FThundershowers. Mostly cloudy.12 mph66%29.93 "Hg10 mi
11:05 pm80 °FThundershowers. Mostly cloudy.12 mph76%29.94 "Hg10 mi
9:53 pm80 °FPartly cloudy.10 mph76%29.83 "Hg10 mi
8:53 pm81 °FPartly cloudy.9 mph69%29.80 "Hg10 mi
7:53 pm84 °FMore clouds than sun.17 mph63%29.80 "Hg10 mi
6:53 pm84 °FMore clouds than sun.12 mph63%29.82 "Hg10 mi
5:53 pm85 °FMore clouds than sun.13 mph59%29.82 "Hg10 mi
Weather by CustomWeather, © 2017

See weather overviewHow to use our weather pages